When you browse on this site, cookies collect data to enhance your experience and personalize the content and advertising you see.
Visit our Privacy Policy to learn more. By continuing to use the site, you agree to this use of cookies and data.
  • En España
  • Lista de países
  • Para 7 días
  • Temperatura del agua
  • Mapa Satelital
  • El tiempo en el mapa
  • Informadores
  • user-avatar
    Iniciar sesión

    Tiempo cada hora Sidi Bu-l-Abbas

    Hoy, 16 Diciembre, Domingo

    Tiempo Temperatura Precipitaciones Viento Presión Humedad
    00:00 +12°C° 0 mm 2 mps 726 mmHg 41%
    01:00 +12°C° 0 mm 2 mps 726 mmHg 41%
    02:00 +12°C° 0 mm 2 mps 726 mmHg 41%
    03:00 +12°C° 0 mm 2 mps 725 mmHg 41%
    04:00 +12°C° 0 mm 2 mps 725 mmHg 42%
    05:00 +12°C° 0 mm 2 mps 725 mmHg 42%
    06:00 +12°C° 0 mm 2 mps 725 mmHg 43%
    07:00 +14°C° 0 mm 2 mps 725 mmHg 41%
    08:00 +14°C° 0 mm 3 mps 725 mmHg 40%
    09:00 +16°C° 0 mm 3 mps 726 mmHg 39%
    10:00 +18°C° 0 mm 3 mps 726 mmHg 35%
    11:00 +20°C° 0 mm 3 mps 725 mmHg 31%
    12:00 +21°C° 0 mm 3 mps 725 mmHg 27%
    13:00 +21°C° 0 mm 4 mps 725 mmHg 28%
    14:00 +21°C° 0 mm 4 mps 725 mmHg 29%
    15:00 +21°C° 0 mm 5 mps 725 mmHg 31%
    16:00 +19°C° 0 mm 4 mps 725 mmHg 39%
    17:00 +17°C° 0 mm 4 mps 725 mmHg 47%
    18:00 +14°C° 0 mm 3 mps 726 mmHg 55%
    19:00 +14°C° 0 mm 3 mps 726 mmHg 54%
    20:00 +14°C° 0 mm 3 mps 726 mmHg 53%
    21:00 +13°C° 0 mm 3 mps 727 mmHg 52%
    22:00 +13°C° 0 mm 3 mps 727 mmHg 52%
    23:00 +13°C° 0 mm 3 mps 727 mmHg 52%

    Mañana, 17 Diciembre, Lunes

    Tiempo Temperatura Precipitaciones Viento Presión Humedad
    00:00 +13°C° 0 mm 3 mps 727 mmHg 52%
    01:00 +13°C° 0 mm 2 mps 727 mmHg 55%
    02:00 +13°C° 0 mm 2 mps 727 mmHg 59%
    03:00 +12°C° 0 mm 1 mps 727 mmHg 62%
    04:00 +12°C° 0 mm 1 mps 727 mmHg 65%
    05:00 +12°C° 0 mm 1 mps 727 mmHg 69%
    06:00 +12°C° 0 mm 1 mps 727 mmHg 72%
    07:00 +13°C° 0 mm 1 mps 727 mmHg 69%
    08:00 +14°C° 0 mm 1 mps 728 mmHg 66%
    09:00 +15°C° 0 mm 1 mps 728 mmHg 63%
    10:00 +16°C° 0 mm 1 mps 728 mmHg 62%
    11:00 +18°C° 0 mm 1 mps 728 mmHg 60%
    12:00 +19°C° 0 mm 1 mps 728 mmHg 59%
    13:00 +19°C° 0 mm 1 mps 728 mmHg 58%
    14:00 +19°C° 0 mm 1 mps 727 mmHg 56%
    15:00 +20°C° 0 mm 1 mps 727 mmHg 54%
    16:00 +17°C° 0 mm 2 mps 727 mmHg 60%
    17:00 +16°C° 0 mm 2 mps 727 mmHg 65%
    18:00 +15°C° 0 mm 2 mps 727 mmHg 71%
    19:00 +15°C° 0 mm 2 mps 727 mmHg 72%
    20:00 +14°C° 0 mm 2 mps 727 mmHg 74%
    21:00 +14°C° 0 mm 1 mps 727 mmHg 75%
    22:00 +13°C° 0 mm 2 mps 727 mmHg 75%
    23:00 +13°C° 0 mm 2 mps 727 mmHg 75%

    Pasado mañana, 18 Diciembre, Martes

    Tiempo Temperatura Precipitaciones Viento Presión Humedad
    00:00 +13°C° 0 mm 2 mps 727 mmHg 74%
    01:00 +13°C° 0 mm 2 mps 726 mmHg 73%
    02:00 +13°C° 0 mm 2 mps 726 mmHg 71%
    03:00 +12°C° 0 mm 2 mps 726 mmHg 70%
    04:00 +12°C° 0 mm 2 mps 725 mmHg 68%
    05:00 +12°C° 0 mm 2 mps 725 mmHg 67%
    06:00 +12°C° 0 mm 2 mps 725 mmHg 66%
    07:00 +13°C° 0 mm 2 mps 725 mmHg 60%
    08:00 +14°C° 0 mm 2 mps 726 mmHg 53%
    09:00 +16°C° 0 mm 2 mps 726 mmHg 46%
    10:00 +17°C° 0 mm 2 mps 726 mmHg 41%
    11:00 +19°C° 0 mm 2 mps 726 mmHg 36%
    12:00 +20°C° 0 mm 2 mps 726 mmHg 31%
    13:00 +20°C° 0 mm 2 mps 725 mmHg 32%
    14:00 +20°C° 0 mm 2 mps 725 mmHg 33%
    15:00 +20°C° 0 mm 2 mps 725 mmHg 34%
    16:00 +19°C° 0 mm 2 mps 724 mmHg 41%
    17:00 +17°C° 0 mm 2 mps 724 mmHg 48%
    18:00 +15°C° 0 mm 1 mps 724 mmHg 55%
    19:00 +14°C° 0 mm 1 mps 724 mmHg 57%
    20:00 +14°C° 0 mm 1 mps 725 mmHg 59%
    21:00 +13°C° 0 mm 1 mps 725 mmHg 61%
    22:00 +13°C° 0 mm 1 mps 725 mmHg 60%
    23:00 +13°C° 0 mm 1 mps 725 mmHg 59%

    19 Diciembre, Miércoles

    Tiempo Temperatura Precipitaciones Viento Presión Humedad
    00:00 +13°C° 0 mm 2 mps 724 mmHg 57%
    01:00 +13°C° 0 mm 2 mps 724 mmHg 57%
    02:00 +12°C° 0 mm 2 mps 724 mmHg 56%
    03:00 +12°C° 0 mm 2 mps 724 mmHg 55%
    04:00 +12°C° 0 mm 2 mps 724 mmHg 54%
    05:00 +12°C° 0 mm 2 mps 724 mmHg 53%
    06:00 +12°C° 0 mm 2 mps 725 mmHg 52%
    07:00 +13°C° 0 mm 2 mps 725 mmHg 49%
    08:00 +15°C° 0 mm 2 mps 725 mmHg 47%
    09:00 +16°C° 0 mm 2 mps 726 mmHg 45%
    10:00 +17°C° 0 mm 2 mps 726 mmHg 42%
    11:00 +18°C° 0 mm 3 mps 726 mmHg 39%
    12:00 +19°C° 0 mm 3 mps 726 mmHg 37%
    13:00 +19°C° 0 mm 3 mps 725 mmHg 38%
    14:00 +19°C° 0 mm 3 mps 725 mmHg 40%
    15:00 +19°C° 0 mm 3 mps 724 mmHg 41%
    16:00 +18°C° 0 mm 3 mps 725 mmHg 47%
    17:00 +17°C° 0 mm 2 mps 725 mmHg 52%
    18:00 +16°C° 0 mm 2 mps 725 mmHg 58%
    19:00 +15°C° 0 mm 2 mps 726 mmHg 62%
    20:00 +14°C° 0 mm 2 mps 726 mmHg 66%
    21:00 +13°C° 0 mm 1 mps 726 mmHg 70%
    22:00 +13°C° 0 mm 1 mps 726 mmHg 74%
    23:00 +12°C° 0 mm 1 mps 726 mmHg 78%

    20 Diciembre, Jueves

    Tiempo Temperatura Precipitaciones Viento Presión Humedad
    00:00 +12°C° 0 mm 1 mps 726 mmHg 81%
    01:00 +11°C° 0 mm 1 mps 726 mmHg 83%
    02:00 +11°C° 0 mm 1 mps 726 mmHg 85%
    03:00 +9°C° 0 mm 0 mps 726 mmHg 87%
    04:00 +9°C° 0 mm 0 mps 726 mmHg 87%
    05:00 +9°C° 0 mm 0 mps 726 mmHg 87%
    06:00 +9°C° 0 mm 0 mps 726 mmHg 88%
    07:00 +10°C° 0 mm 0 mps 727 mmHg 80%
    08:00 +11°C° 0 mm 0 mps 727 mmHg 73%
    09:00 +14°C° 0 mm 1 mps 728 mmHg 66%
    10:00 +15°C° 0 mm 1 mps 728 mmHg 60%
    11:00 +16°C° 0 mm 1 mps 728 mmHg 55%
    12:00 +16°C° 0 mm 1 mps 728 mmHg 49%
    13:00 +18°C° 0 mm 1 mps 727 mmHg 49%
    14:00 +17°C° 0 mm 2 mps 727 mmHg 48%
    15:00 +17°C° 0 mm 2 mps 727 mmHg 47%
    16:00 +16°C° 0 mm 2 mps 727 mmHg 53%
    17:00 +14°C° 0 mm 2 mps 727 mmHg 59%
    18:00 +13°C° 0 mm 1 mps 727 mmHg 64%
    19:00 +13°C° 0 mm 1 mps 727 mmHg 67%
    20:00 +12°C° 0 mm 1 mps 728 mmHg 70%
    21:00 +10°C° 0 mm 0 mps 728 mmHg 73%
    22:00 +10°C° 0 mm 0 mps 728 mmHg 75%
    23:00 +10°C° 0 mm 0 mps 728 mmHg 76%

    21 Diciembre, Viernes

    Tiempo Temperatura Precipitaciones Viento Presión Humedad
    00:00 +9°C° 0 mm 0 mps 728 mmHg 77%
    01:00 +9°C° 0 mm 0 mps 728 mmHg 78%
    02:00 +9°C° 0 mm 0 mps 728 mmHg 79%
    03:00 +8°C° 0 mm 0 mps 727 mmHg 80%
    04:00 +8°C° 0 mm 0 mps 728 mmHg 81%
    05:00 +8°C° 0 mm 0 mps 728 mmHg 82%
    06:00 +8°C° 0 mm 0 mps 728 mmHg 83%
    07:00 +9°C° 0 mm 0 mps 728 mmHg 75%
    08:00 +12°C° 0 mm 1 mps 729 mmHg 68%
    09:00 +13°C° 0 mm 1 mps 730 mmHg 60%
    10:00 +15°C° 0 mm 1 mps 730 mmHg 55%
    11:00 +15°C° 0 mm 0 mps 729 mmHg 49%
    12:00 +16°C° 0 mm 0 mps 729 mmHg 44%
    13:00 +18°C° 0 mm 1 mps 729 mmHg 42%
    14:00 +18°C° 0 mm 1 mps 729 mmHg 41%
    15:00 +19°C° 0 mm 1 mps 729 mmHg 39%
    16:00 +16°C° 0 mm 1 mps 729 mmHg 45%
    17:00 +15°C° 0 mm 1 mps 729 mmHg 51%
    18:00 +14°C° 0 mm 2 mps 729 mmHg 57%
    19:00 +13°C° 0 mm 1 mps 729 mmHg 58%
    20:00 +13°C° 0 mm 1 mps 729 mmHg 59%
    21:00 +12°C° 0 mm 1 mps 729 mmHg 61%
    22:00 +12°C° 0 mm 1 mps 729 mmHg 60%
    23:00 +12°C° 0 mm 1 mps 729 mmHg 60%
    Mostrar más